Weather in Chistoprudnoe

Russia / Kurgan Oblast     56°00′59″N   63°55′12″E
temp.,
°C
wind,
m/s
gust,
m/s
humid.,
%
clouds,
%
prec.,
mm/h
press.,
hPa
HPBL,
m
22 january, fri
fri2223:00−22w479857 0.0 101399
02:00−23w349868 0.0 101464
05:00−21w359881 0.1 1015118
08:00−22w239992 0.0 101531
11:00−21nw239795 0.1 1017160
14:00−20nnw2395100 0.1 1018278
17:00−23n349799 0.1 102094
20:00−28n369584 0.0 1022110
23 january, sat
sat2323:00−29n339665 0.0 102650
02:00−30n349774 0.0 102834
05:00−32n339845 0.0 103132
08:00−35n339513 0.0 103432
11:00−34nnw249538 0.0 1036125
14:00−32nw239359 0.0 1037208
17:00−34wnw129569 0.0 103719
20:00−33s1293100 0.0 103825
24 january, sun
sun2423:00−31sse2393100 0.0 1038107
02:00−29sse3593100 0.0 1037193
05:00−28se4698100 0.2 1036236
08:00−27se4698100 0.4 1036242
11:00−26se359699 0.4 1036246
14:00−25ese359699 0.0 1037287
17:00−26e3598100 0.0 1037114
20:00−25ese4795100 0.0 1038269
25 january, mon
mon2523:00−25se479799 0.1 1037242
02:00−24se4898100 0.2 1036266
05:00−23se4798100 0.9 1034276
08:00−21se4798100 0.6 1034267
11:00−20se4697100 1.0 1033262
14:00−18ese3495100 0.1 1033301
17:00−17ese3496100 0.3 1033192
20:00−18ese3497100 0.3 1034144
26 january, tue
tue2623:00−18ese3497100 0.5 1034125
02:00−18ese239798 0.1 103485
05:00−16se239799 0.2 1033106
08:00−14se2396100 0.4 1033114
11:00−11se3395100 0.9 1033126
14:00−7sse349687 0.3 1033142
17:00−6sse339792 0.4 103277
20:00−3sw3697100 0.2 1032154